ONEWEB-0043 (45149 NORAD) Tracking and Keplerian Element Data

This shows tracking and keplerian element data for the satellite.

Feedback or suggestion? Click here.




ElementValue
Catalog45149
NameONEWEB-0043
Epoch Orbit931
Epoch Day94.16920025
Epoch Year2020
RAAN145.4087
Inclination87.4925
Eccentricity0.0022269
Argument of Perigee98.3301
Mean Anonmoly262.045
Mean Motion14.84517031
Decay Rate-0.00354035
L11 45149U 20008U 20094.16920025 -.00354035 00000-0 -44033-1 0 9990
L22 45149 87.4925 145.4087 0022269 98.3301 262.0450 14.84517031 9310

Live tracking and technical data element details for ONEWEB-0043 (NORAD 45149). ONEWEB-0043 can be tracked NOW for your location showing map with azimuth and elevation plus other details from your city location.

Track the satellite on the map from your city or location and see movement details for azimuth, elevation, latitude, longitude, range, height, and movement on the map or in text.







IsCatalogInMostPopularTable: catalog: 45149, numindb: 13
Update: records affected: 1



GetName: 45149 ONEWEB-0043

Hit Count: updated at: Fri, 10 Apr 2020 18:30:09 GMT